Flag for Ecuador Weather past 2 weeks in Guayaquil, Ecuador

Now
81 °F

Broken clouds.


Feels Like: 84 °F
Forecast: 71 / 88 °F
Wind: 8 mph from Southeast

Location: Guayaquil / Simon Bolivar

Current Time: Jul 24, 2014 at 12:51:40 PM

Latest Report: Jul 24, 2014 at 12:00 PM


Visibility: N/A

Pressure: 29.80 "Hg

Humidity: 70%

Dew point: 70 °F

Location of GuayaquilLocation

Historic Weather in Guayaquil — Graph

°F

Guayaquil temperature yesterday

Maximum temperature yesterday: 84 °F (at 4:00 PM)
Minimum temperature yesterday: 72 °F (at 1:00 AM)
Average temperature yesterday: 76 °F

Past Weeks' High & Low Weather Summary

 TemperatureHumidityPressure
High91 °F (Jul 10, 3:00 PM)88% (Jul 22, 4:00 AM)29.92 "Hg (Jul 22, 4:00 AM)
Low70 °F (Jul 22, 4:00 AM)49% (Jul 10, 3:00 PM)29.65 "Hg (Jul 10, 4:00 PM)
Average78 °F71%29.83 "Hg
* Reported Jul 9 2:00 PM — Jul 24 12:00 Noon, Guayaquil, Weather by CustomWeather, © 2014

Note: Actual official high and low records may vary slightly from our data, if they occured in-between our weather recording intervals... More about our weather records

Advertising

Guayaquil weather history for July 10, 2014

 ConditionsComfort  
Time TempWeatherWind HumidityBarometerVisibility
12:00 AM
Jul 10
75 °FClear.12 mph74%29.83 "Hg10 mi
1:00 AM75 °FClear.9 mph74%29.83 "Hg10 mi
2:00 AM73 °FClear.10 mph83%29.80 "Hg10 mi
3:00 AM73 °FClear.8 mph78%29.80 "Hg10 mi
4:00 AM73 °FMild.7 mph78%29.77 "HgN/A
5:00 AM73 °FPassing clouds.6 mph78%29.80 "HgN/A
7:00 AM73 °FPassing clouds.5 mph83%29.80 "HgN/A
8:00 AM77 °FPassing clouds.7 mph74%29.80 "HgN/A
9:00 AM82 °FPassing clouds.2 mph66%29.80 "HgN/A
10:00 AM82 °FScattered clouds.2 mph66%29.80 "HgN/A
11:00 AM82 °FPassing clouds.2 mph70%29.80 "HgN/A
12:00 PM84 °FSunny.3 mph62%29.77 "Hg10 mi
1:00 PM88 °FPassing clouds.2 mph59%29.74 "HgN/A
2:00 PM90 °FPassing clouds.3 mph52%29.71 "HgN/A
3:00 PM91 °FPassing clouds.2 mph49%29.68 "HgN/A
4:00 PM91 °FPassing clouds.7 mph52%29.65 "HgN/A
5:00 PM90 °FPartly sunny.6 mph55%29.68 "HgN/A
6:00 PM88 °FPartly sunny.2 mph55%29.71 "HgN/A
7:00 PM84 °FPartly cloudy.10 mph66%29.71 "HgN/A
8:00 PM82 °FPassing clouds.9 mph62%29.74 "HgN/A
9:00 PM82 °FPartly cloudy.13 mph62%29.77 "HgN/A
10:00 PM79 °FPartly cloudy.13 mph70%29.77 "HgN/A
11:00 PM79 °FPassing clouds.9 mph70%29.80 "HgN/A
Weather by CustomWeather, © 2014

See weather overviewHow to use our weather pages